This is the latest recevied weather packets stored in our database for station/object W4JCW. If no packets are shown the sender has not sent any weather packets the latest 10 day(s).
| Time | Temp. | Humidity | Pressure | Rain* | Wind** | Luminosity | Snow |
|---|---|---|---|---|---|---|---|
| 1777993409 | 23.33° C | 56% | 1016.1 hPa | 0 mm | - | 820 W/m² | - |
| 1777993103 | 23.33° C | 56% | 1016 hPa | 0 mm | - | 68 W/m² | - |
| 1777992802 | 23.33° C | 58% | 1016.2 hPa | 0 mm | - | 66 W/m² | - |
| 1777992499 | 22.78° C | 59% | 1015.8 hPa | 0 mm | - | 66 W/m² | - |
| 1777992198 | 22.78° C | 58% | 1016.3 hPa | 0 mm | - | 72 W/m² | - |
| 1777991894 | 22.78° C | 60% | 1016.2 hPa | 0 mm | - | 71 W/m² | - |
| 1777991592 | 22.78° C | 62% | 1016.1 hPa | 0 mm | - | 527 W/m² | - |
| 1777991288 | 22.22° C | 62% | 1016.3 hPa | 0 mm | - | 344 W/m² | - |
| 1777990986 | 22.22° C | 62% | 1016.1 hPa | 0 mm | - | 110 W/m² | - |
| 1777990684 | 21.67° C | 64% | 1016.2 hPa | 0 mm | - | 281 W/m² | - |
| 1777990381 | 21.67° C | 65% | 1016 hPa | 0 mm | - | 340 W/m² | - |
| 1777990075 | 21.67° C | 64% | 1016.1 hPa | 0 mm | - | 434 W/m² | - |
| 1777989772 | 21.67° C | 65% | 1016.1 hPa | 0 mm | - | 445 W/m² | - |
| 1777989469 | 21.11° C | 66% | 1016.1 hPa | 0 mm | - | 596 W/m² | - |
| 1777989166 | 21.11° C | 65% | 1016.1 hPa | 0 mm | - | 577 W/m² | - |
| 1777988862 | 20.56° C | 66% | 1016 hPa | 0 mm | - | 558 W/m² | - |
| 1777988559 | 20° C | 69% | 1016.2 hPa | 0 mm | - | 542 W/m² | - |
| 1777988256 | 20° C | 69% | 1016 hPa | 0 mm | - | 523 W/m² | - |
| 1777987952 | 19.44° C | 69% | 1016 hPa | 0 mm | - | 506 W/m² | - |
| 1777987648 | 18.89° C | 70% | 1016.1 hPa | 0 mm | - | 489 W/m² | - |
| 1777987345 | 18.33° C | 72% | 1016 hPa | 0 mm | - | 473 W/m² | - |
| 1777987043 | 18.33° C | 74% | 1016 hPa | 0 mm | - | 453 W/m² | - |
| 1777986740 | 17.78° C | 75% | 1016.1 hPa | 0 mm | - | 433 W/m² | - |
| 1777986438 | 17.78° C | 75% | 1015.8 hPa | 0 mm | - | 136 W/m² | - |
| 1777986136 | 17.22° C | 76% | 1016.1 hPa | 0 mm | - | 203 W/m² | - |
* Rain latest hour (hover to see other rain measurements)
** Current wind speed in m/s (hover to see current wind gust speed)